Flag for Germany Weather past 2 weeks in Willich, North Rhine-Westphalia, Germany

Now
39 °F

Fog.


Feels Like: 36 °F
Forecast: 37 / 43 °F
Wind: 5 mph from Southwest

Location: Monchengladbach Airport

Current Time: Jan 25, 2015 at 2:04:27 PM

Latest Report: Jan 25, 2015 at 1:20 PM


Visibility: 3 mi

Pressure: 30.39 "Hg

Humidity: 87%

Dew point: 36 °F

Location of WillichLocation

Historic Weather in Willich — Graph

°F

Willich temperature yesterday

Maximum temperature yesterday: 39 °F (at 3:50 PM)
Minimum temperature yesterday: 30 °F (at 8:20 AM)
Average temperature yesterday: 35 °F

Past Weeks' High & Low Weather Summary

 TemperatureHumidityPressure
High55 °F (Jan 10, 12:20 PM)100% (Jan 17, 8:20 AM)30.42 "Hg (Jan 17, 8:20 AM)
Low28 °F (Jan 19, 8:20 AM)61% (Jan 17, 2:20 PM)29.42 "Hg (Jan 15, 2:50 PM)
Average40 °F81%29.93 "Hg
* Reported Jan 10 12:20 PM — Jan 25 12:50 PM, Willich, Weather by CustomWeather, © 2014

Note: Actual official high and low records may vary slightly from our data, if they occured in-between our weather recording intervals... More about our weather records

Advertising

Willich weather history for previous 24 hours

 ConditionsComfort  
Time TempWeatherWind HumidityBarometerVisibility
12:50 PM
Jan 25
37 °FFog.5 mph93%30.39 "Hg3 mi
12:20 PM37 °FFog.3 mph93%30.42 "Hg3 mi
11:50 AM37 °FFog.6 mph87%30.42 "Hg3 mi
11:20 AM36 °FFog.5 mph93%30.42 "Hg3 mi
10:50 AM36 °FFog.5 mph93%30.42 "Hg3 mi
10:20 AM36 °FFog.5 mph93%30.42 "Hg3 mi
9:50 AM36 °FFog.5 mph93%30.42 "Hg3 mi
9:20 AM34 °FFog.6 mph100%30.42 "Hg3 mi
8:50 AM34 °FFog.5 mph100%30.42 "Hg3 mi
8:20 AM34 °FFog.6 mph100%30.39 "Hg3 mi
7:50 AM34 °FBroken clouds.5 mph93%30.39 "Hg4 mi
8:20 PM
Jan 24
36 °FPassing clouds.6 mph93%30.27 "HgN/A
7:50 PM36 °FPassing clouds.7 mph93%30.27 "HgN/A
7:20 PM37 °FPassing clouds.7 mph87%30.24 "HgN/A
6:50 PM37 °FClear.8 mph87%30.24 "Hg10 mi
6:20 PM37 °FClear.8 mph93%30.21 "Hg10 mi
5:50 PM37 °FClear.8 mph93%30.21 "Hg10 mi
5:20 PM37 °FPassing clouds.9 mph93%30.18 "Hg5 mi
4:50 PM37 °FPassing clouds.10 mph93%30.15 "Hg5 mi
4:20 PM39 °FPassing clouds.9 mph87%30.15 "Hg4 mi
3:50 PM39 °FPassing clouds.9 mph87%30.12 "Hg4 mi
3:20 PM37 °FPassing clouds.8 mph93%30.12 "Hg4 mi
2:50 PM37 °FFog.8 mph93%30.09 "Hg3 mi
2:20 PM37 °FFog.9 mph93%30.09 "Hg3 mi
Weather by CustomWeather, © 2014

See weather overviewHow to use our weather pages